Regional Weather Roundup
Issued by NWS

Home | Current Version | Previous Version | Graphics & Text | Print | Product List | Glossary On
Versions: 1 2 3 4 5 6 7 8 9 10 11 12 13 14 15 16 17 18 19 20 21 22 23 24 25 26 27 28 29 30 31 32 33 34 35 36 37 38 39 40 41 42 43 44 45 46 47 48 49 50
000
ASUS45 KBOU 270507
RWRCO

WEATHER ROUNDUP FOR COLORADO
NATIONAL WEATHER SERVICE DENVER/BOULDER CO
1100 PM MDT THU MAR 26 2015

NOTE: "FAIR" INDICATES FEW OR NO CLOUDS BELOW 12000 FEET WITH NO
SIGNIFICANT WEATHER AND/OR OBSTRUCTIONS TO VISIBILITY.

COZ001>005-013-030-031-270600-
...NORTHWEST COLORADO...

CITY           SKY/WX    TMP DP  RH WIND       PRES   REMARKS
CRAIG          PTCLDY    43  26  51 SW8       30.32R
HAYDEN         PTCLDY    43  23  45 W6        30.32R
MEEKER         PTCLDY    39  27  62 CALM      30.34R
MOUNT WERNER   NOT AVBL
STEAMBOAT SPGS MOCLDY    40  28  62 E3        30.32R
WALDEN         CLOUDY    37  25  60 S5        30.30R
$$

COZ006>008-011-270600-
...WEST CENTRAL VALLEYS...

CITY           SKY/WX    TMP DP  RH WIND       PRES   REMARKS
GRAND JUNCTION CLEAR     40  18  41 CALM      30.28R
MONTROSE       CLEAR     42  24  49 SE9       30.34R
EAGLE          CLOUDY    46  27  46 CALM      30.33R
RIFLE          PTCLDY    42  25  50 VRB5      30.30R
DELTA          CLEAR     45  22  40 NE5       30.31R
NUCLA          CLEAR     43  19  39 E12       30.35S
$$

COZ017>023-064>068-270600-
...SOUTHWEST COLORADO...

CITY           SKY/WX    TMP DP  RH WIND       PRES   REMARKS
DURANGO        PTCLDY    41  19  41 CALM      30.29R
CORTEZ         CLEAR     36  17  46 E3        30.32R
PAGOSA SPRINGS PTCLDY    37  20  49 NE3       30.33R
TELLURIDE      NOT AVBL
WOLF CREEK PAS CLEAR     28  10  47 N3        30.49R
$$

COZ009-010-012-014-032>034-037-058>063-270600-
...CENTRAL COLORADO...

CITY           SKY/WX    TMP DP  RH WIND       PRES   REMARKS
ASPEN          CLOUDY    37  26  64 S7        30.35R
BUENA VISTA    MOCLDY    43  21  42 NW8       30.32R
COPPER MTN     CLOUDY    32  21  64 W22G32    30.42S WCI  19
BERTHOUD PASS  LGT SNOW  21  14  73 NW38G51   30.37S WCI   1
COTTONWOOD PAS PTCLDY    39  18  41 W18G25    30.36F
GUNNISON       CLEAR     37  19  48 NW6       30.39R
KREMMLING      MOCLDY    34  27  75 CALM      30.32R
LEADVILLE      CLOUDY    34  19  54 NW16      30.37R WCI  24
SALIDA         PTCLDY    47  19  33 W3        30.38R
SUNLIGHT       MOCLDY    32  21  64 CALM      30.48R
WILKERSON PASS CLOUDY    32  19  59 NW10G24   30.39R WCI  24
$$

COZ069>075-270600-
...SAN LUIS VALLEY/SANGRE DE CRISTO MOUNTAINS...

CITY           SKY/WX    TMP DP  RH WIND       PRES   REMARKS
ALAMOSA        MOCLDY    47  15  27 N18G24    30.27R
LA VETA PASS   CLOUDY    34  19  55 W10G18    30.35S WCI  26
SAGUACHE       PTCLDY    41  19  42 NW10      30.33R
$$

COZ035-036-038>040-270600-
...NORTHERN COLORADO FRONT RANGE...

CITY           SKY/WX    TMP DP  RH WIND       PRES   REMARKS
DENVER INTL AP CLOUDY    47  31  53 E16       30.17R
DMNS CITY PARK   N/A     54  25  32 N3        30.15S
AURORA         CLOUDY    51  27  40 N6        30.17S
FRONT RANGE AP NOT AVBL
ERIE MUNI ARPT MOCLDY    49  30  48 E13       30.16R
BOULDER MUN AP MOCLDY    48  32  53 N10       30.18R
CENTENNIAL     CLOUDY    50  28  42 W6        30.17S
BROOMFIELD     NOT AVBL
FORT COLLINS   CLOUDY    46  28  49 CALM      30.22R
LONGMONT       CLOUDY    51  30  43 NE7       30.21R
$$

COZ041-046-047-076>085-087-088-270600-
...PIKES PEAK/PALMER DIVIDE AND SOUTHERN FOOTHILLS...

CITY           SKY/WX    TMP DP  RH WIND       PRES   REMARKS
COLO. SPRINGS  CLOUDY    44  25  47 NE6       30.22S
A. F. ACADEMY  CLOUDY    40  28  62 N5        30.21F
ELLICOTT       CLOUDY   N/A N/A N/A S7        30.21S
FALCON         CLOUDY    42  23  46 SW3       30.24S
FORT CARSON    MOCLDY    45  25  45 W2        30.19F
LIMON          CLOUDY    41  30  65 CALM      30.19S
MONUMENT HILL  CLOUDY    37  28  70 SW5       30.21S
TRINIDAD       CLOUDY    40  30  67 NW6       30.23R
$$

COZ042>045-048>051-090-091-270600-
...NORTHEAST COLORADO...

CITY           SKY/WX    TMP DP  RH WIND       PRES   REMARKS
GREELEY ARPT   CLOUDY    48  27  43 E9        30.18R
AKRON          CLOUDY    43  34  70 E5        30.18S
BURLINGTON     CLOUDY    45  32  60 NE7       30.17S
WRAY           CLOUDY    44  30  58 E8        30.19R
STERLING       CLOUDY    41  34  75 CALM      30.17R
HOLYOKE        CLOUDY    43  32  65 E9        30.19R
FORT MORGAN    CLOUDY    44  31  59 E6        30.19R
$$

COZ086-089-092>099-270600-
...SOUTHEAST COLORADO...

CITY           SKY/WX    TMP DP  RH WIND       PRES   REMARKS
PUEBLO         PTCLDY    45  32  60 W3        30.18S
LA JUNTA       PTCLDY    46  24  42 E6        30.19R
LAMAR          PTCLDY    35  27  72 SW3       30.18R
SPRINGFIELD      N/A     34  27  75 NW5       30.19R WCI  30
$$



USA.gov is the U.S. government's official web portal to all federal, state and local government web resources and services.